TimeEST,TemperatureF,Dew PointF,Humidity,Sea Level PressureIn,VisibilityMPH,Wind Direction,Wind SpeedMPH,Gust SpeedMPH,PrecipitationIn,Events,Conditions,WindDirDegrees,DateUTC
12:15 AM,43.3,38.1,82,29.95,10.0,NW,3.5,-,N/A,,Overcast,320,2012-11-07 05:15:00
12:35 AM,43.2,38.3,83,29.93,10.0,NNW,5.8,-,N/A,,Overcast,340,2012-11-07 05:35:00
12:55 AM,43.7,37.6,79,29.93,10.0,NNW,6.9,-,N/A,,Overcast,340,2012-11-07 05:55:00
1:15 AM,43.3,37.4,80,29.92,10.0,North,6.9,-,N/A,,Light Drizzle,350,2012-11-07 06:15:00
1:35 AM,43.3,36.7,77,29.91,10.0,North,6.9,-,N/A,,Overcast,350,2012-11-07 06:35:00
1:55 AM,43.3,36.5,77,29.91,10.0,NNW,8.1,-,N/A,,Light Drizzle,330,2012-11-07 06:55:00
2:15 AM,42.6,36.0,77,29.91,10.0,North,4.6,-,N/A,Rain,Rain,350,2012-11-07 07:15:00
2:35 AM,41.9,36.5,81,29.90,10.0,NNW,4.6,-,N/A,,Light Drizzle,340,2012-11-07 07:35:00
2:55 AM,41.4,36.5,83,29.90,10.0,North,5.8,-,N/A,,Light Drizzle,350,2012-11-07 07:55:00
3:15 AM,41.0,36.5,84,29.90,10.0,North,5.8,-,N/A,Rain,Rain,350,2012-11-07 08:15:00
3:35 AM,40.5,36.1,85,29.89,10.0,North,6.9,-,N/A,Rain,Rain,350,2012-11-07 08:35:00
3:55 AM,40.5,35.8,83,29.89,10.0,NNW,3.5,-,N/A,,Light Drizzle,340,2012-11-07 08:55:00
4:15 AM,40.5,35.4,82,29.90,10.0,NNW,4.6,-,N/A,,Mostly Cloudy,340,2012-11-07 09:15:00
4:35 AM,40.6,34.9,80,29.90,10.0,NNW,5.8,-,N/A,Rain,Light Rain,330,2012-11-07 09:35:00
4:55 AM,40.8,34.7,79,29.90,10.0,NNW,3.5,-,N/A,,Light Drizzle,330,2012-11-07 09:55:00
5:15 AM,40.6,34.3,78,29.90,10.0,NW,4.6,-,N/A,,Overcast,320,2012-11-07 10:15:00
5:35 AM,40.6,34.7,79,29.90,10.0,NNW,4.6,-,N/A,,Overcast,330,2012-11-07 10:35:00
5:55 AM,41.0,34.7,78,29.90,10.0,NW,4.6,-,N/A,,Light Drizzle,320,2012-11-07 10:55:00
6:15 AM,40.5,34.7,80,29.90,10.0,NW,5.8,-,N/A,Rain,Light Rain,320,2012-11-07 11:15:00
6:35 AM,40.6,34.7,79,29.90,10.0,NNW,4.6,-,N/A,,Light Drizzle,340,2012-11-07 11:35:00
6:55 AM,40.1,35.6,84,29.90,10.0,NNW,8.1,-,N/A,Rain,Rain,330,2012-11-07 11:55:00
7:15 AM,39.4,36.5,89,29.90,10.0,NW,5.8,-,N/A,Rain,Light Rain,320,2012-11-07 12:15:00
7:35 AM,39.2,36.9,91,29.90,10.0,NW,6.9,-,N/A,Rain,Light Rain,320,2012-11-07 12:35:00
7:55 AM,39.0,36.5,91,29.90,10.0,NW,6.9,-,N/A,Rain,Rain,320,2012-11-07 12:55:00
8:15 AM,39.2,36.5,90,29.90,10.0,NNW,6.9,-,N/A,,Light Drizzle,340,2012-11-07 13:15:00
8:35 AM,39.4,36.5,89,29.90,10.0,NNW,5.8,-,N/A,,Overcast,330,2012-11-07 13:35:00
8:55 AM,39.6,36.5,89,29.89,10.0,NNW,6.9,-,N/A,,Overcast,330,2012-11-07 13:55:00
9:15 AM,40.3,37.0,88,29.88,10.0,NNW,5.8,-,N/A,,Overcast,330,2012-11-07 14:15:00
9:35 AM,41.0,36.7,85,29.89,10.0,NNW,6.9,-,N/A,,Overcast,330,2012-11-07 14:35:00
9:55 AM,41.2,36.7,84,29.88,10.0,NNW,5.8,-,N/A,,Overcast,330,2012-11-07 14:55:00
10:15 AM,41.9,36.7,82,29.88,10.0,NNW,8.1,-,N/A,,Overcast,330,2012-11-07 15:15:00
10:35 AM,42.1,36.5,81,29.88,10.0,NNW,8.1,-,N/A,,Overcast,340,2012-11-07 15:35:00
10:55 AM,42.4,36.1,78,29.87,10.0,North,9.2,-,N/A,,Overcast,350,2012-11-07 15:55:00
11:15 AM,43.2,36.3,77,29.87,10.0,NNW,11.5,-,N/A,,Overcast,340,2012-11-07 16:15:00
11:35 AM,44.1,37.0,76,29.87,10.0,NNW,8.1,-,N/A,,Overcast,340,2012-11-07 16:35:00
11:55 AM,44.1,36.3,74,29.86,10.0,NNW,8.1,-,N/A,,Overcast,330,2012-11-07 16:55:00
12:15 PM,44.8,36.5,73,29.85,10.0,NW,4.6,-,N/A,,Overcast,320,2012-11-07 17:15:00
12:35 PM,45.7,36.7,71,29.85,10.0,NNW,5.8,-,N/A,,Overcast,340,2012-11-07 17:35:00
12:55 PM,46.6,36.5,68,29.85,10.0,NNW,8.1,-,N/A,,Overcast,330,2012-11-07 17:55:00
1:15 PM,46.6,35.6,66,29.85,10.0,NNW,12.7,16.1,N/A,,Overcast,330,2012-11-07 18:15:00
1:35 PM,45.9,34.5,65,29.85,10.0,NW,8.1,-,N/A,,Overcast,320,2012-11-07 18:35:00
1:55 PM,46.0,34.5,64,29.85,10.0,NW,10.4,-,N/A,,Overcast,310,2012-11-07 18:55:00
2:15 PM,45.3,33.6,64,29.84,10.0,NW,10.4,18.4,N/A,,Overcast,320,2012-11-07 19:15:00
2:35 PM,45.1,33.8,65,29.85,10.0,NW,9.2,-,N/A,,Mostly Cloudy,310,2012-11-07 19:35:00
2:55 PM,44.8,33.3,64,29.85,10.0,NW,6.9,-,N/A,,Mostly Cloudy,310,2012-11-07 19:55:00
3:15 PM,44.8,33.4,64,29.85,10.0,NW,5.8,-,N/A,,Overcast,320,2012-11-07 20:15:00
3:35 PM,44.6,33.3,64,29.86,10.0,NNW,6.9,-,N/A,,Overcast,340,2012-11-07 20:35:00
3:55 PM,44.6,32.9,64,29.86,10.0,NNW,8.1,-,N/A,,Overcast,330,2012-11-07 20:55:00
4:15 PM,44.1,32.9,65,29.86,10.0,NW,8.1,-,N/A,,Overcast,320,2012-11-07 21:15:00
4:35 PM,43.9,32.7,65,29.86,10.0,NW,8.1,-,N/A,,Overcast,320,2012-11-07 21:35:00
4:55 PM,43.3,32.9,67,29.86,10.0,NNW,6.9,-,N/A,,Overcast,330,2012-11-07 21:55:00
5:15 PM,43.2,32.9,67,29.87,10.0,NW,3.5,-,N/A,,Overcast,320,2012-11-07 22:15:00
5:35 PM,43.0,33.1,68,29.88,10.0,NW,5.8,-,N/A,,Light Drizzle,320,2012-11-07 22:35:00
5:55 PM,42.8,33.3,69,29.88,10.0,NNW,5.8,-,N/A,,Overcast,330,2012-11-07 22:55:00
6:15 PM,42.4,33.6,71,29.88,10.0,NNW,6.9,-,N/A,Rain,Light Rain,330,2012-11-07 23:15:00
6:35 PM,42.1,33.8,72,29.88,10.0,NW,5.8,-,N/A,,Overcast,320,2012-11-07 23:35:00
6:55 PM,42.1,33.3,71,29.88,10.0,NW,9.2,-,N/A,,Scattered Clouds,310,2012-11-07 23:55:00
7:15 PM,42.1,33.6,72,29.88,10.0,NW,4.6,-,N/A,,Clear,310,2012-11-08 00:15:00
7:35 PM,42.1,33.4,71,29.89,10.0,NW,4.6,-,N/A,,Clear,320,2012-11-08 00:35:00
7:55 PM,42.1,33.4,71,29.89,10.0,NW,4.6,-,N/A,,Light Drizzle,310,2012-11-08 00:55:00
8:15 PM,41.9,34.0,73,29.89,10.0,NNW,4.6,-,N/A,Rain,Light Rain,330,2012-11-08 01:15:00
8:35 PM,41.5,34.5,76,29.89,10.0,Calm,Calm,-,N/A,,Light Drizzle,0,2012-11-08 01:35:00
8:55 PM,41.4,34.9,78,29.90,10.0,WNW,3.5,-,N/A,Rain,Light Rain,300,2012-11-08 01:55:00
9:15 PM,41.5,34.0,75,29.90,10.0,NW,6.9,-,N/A,,Light Drizzle,320,2012-11-08 02:15:00
9:35 PM,41.9,34.0,73,29.89,10.0,NW,6.9,-,N/A,,Light Drizzle,320,2012-11-08 02:35:00
9:55 PM,41.7,34.0,74,29.89,10.0,NW,5.8,-,N/A,,Overcast,320,2012-11-08 02:55:00
10:15 PM,41.9,32.5,69,29.89,10.0,NNW,8.1,-,N/A,,Overcast,330,2012-11-08 03:15:00
10:35 PM,41.9,32.0,68,29.89,10.0,NW,4.6,-,N/A,,Overcast,310,2012-11-08 03:35:00
10:55 PM,41.9,32.0,68,29.89,10.0,WNW,5.8,-,N/A,,Drizzle,300,2012-11-08 03:55:00
11:15 PM,40.8,33.1,74,29.90,10.0,NNW,4.6,-,N/A,,Drizzle,340,2012-11-08 04:15:00
11:35 PM,40.3,33.4,77,29.90,10.0,Calm,Calm,-,N/A,,Drizzle,0,2012-11-08 04:35:00
11:55 PM,40.1,34.0,79,29.90,10.0,NW,3.5,-,N/A,,Light Drizzle,320,2012-11-08 04:55:00